Weather History for LTBA - August, 2013

Change the Weather History Date:

Tuesday, August 6, 2013

  Actual Average Record
Temperature  
Mean Temperature 80 °F -  
Max Temperature 86 °F 80 °F 96 °F (2012)
Min Temperature 74 °F 67 °F 68 °F (1997)
Cooling Degree Days 15    
Growing Degree Days 30 (Base 50)    
Moisture  
Dew Point 60 °F    
Average Humidity 52    
Maximum Humidity 69    
Minimum Humidity 16    
Precipitation  
Precipitation 0.00 in - - ()
Sea Level Pressure  
Sea Level Pressure 29.97 in    
Wind  
Wind Speed 12 mph ()    
Max Wind Speed 21 mph    
Max Gust Speed 31 mph    
Visibility 6.2 miles    
Events      
Averages and records for this station are not official NWS values.
T = Trace of Precipitation, MM = Missing Value Source: Averaged Metar Reports

Daily Weather History Graph

Daily Weather History Graph

Search for Another Location

Airport or City:

Trip Planner

Search our weather history database for the weather conditions in past years. The results will help you decide how hot, cold, wet, or windy it might be!

Date:

Astronomy

Aug. 06, 2013 Rise Set
Actual Time 6:05 AM EEST 8:15 PM EEST
Civil Twilight 5:35 AM EEST 8:45 PM EEST
Nautical Twilight 4:57 AM EEST 9:22 PM EEST
Astronomical Twilight 4:16 AM EEST 10:03 PM EEST
Moon 5:38 AM EEST (8/6) 7:38 PM EEST (8/6)
Length of Visible Light 15h 10m
Length of Day
14h 09m
Waning Crescent, 0% of the Moon is Illuminated
Aug 6
Waning Crescent
Aug 7
New
Aug 14
First Quarter
Aug 21
Full
Aug 28
Last Quarter

Hourly Weather History & Observations

Time (EEST) Temp. Heat Index Dew Point Humidity Pressure Visibility Wind Dir Wind Speed Gust Speed Precip Events Conditions
12:20 AM 77.0 °F - 62.6 °F 61% 30.01 in - NE 11.5 mph - N/A   Clear
12:50 AM 77.0 °F - 62.6 °F 61% 30.01 in - NE 11.5 mph - N/A   Clear
1:20 AM 77.0 °F - 64.4 °F 65% 30.01 in - NE 11.5 mph - N/A   Clear
1:50 AM 75.2 °F - 64.4 °F 69% 30.01 in - NE 10.4 mph - N/A   Clear
2:20 AM 77.0 °F - 64.4 °F 65% 29.98 in - NE 10.4 mph - N/A   Clear
2:50 AM 75.2 °F - 64.4 °F 69% 29.98 in - NE 11.5 mph - N/A   Clear
3:00 AM 75 °F - 64 °F 60% 29.99 in 6 mi NE 11.5 mph - -  
3:20 AM 75.2 °F - 64.4 °F 69% 29.98 in - NE 9.2 mph - N/A   Clear
3:50 AM 75.2 °F - 64.4 °F 69% 29.98 in - NE 10.4 mph - N/A   Clear
4:20 AM 75.2 °F - 62.6 °F 65% 29.98 in - NE 8.1 mph - N/A   Clear
4:50 AM 75.2 °F - 64.4 °F 69% 29.98 in - NE 9.2 mph - N/A   Clear
5:20 AM 75.2 °F - 62.6 °F 65% 29.98 in - NE 11.5 mph - N/A   Clear
5:50 AM 75.2 °F - 62.6 °F 65% 29.98 in - NNE 9.2 mph - N/A   Clear
6:20 AM 75.2 °F - 62.6 °F 65% 29.98 in 6.2 mi NNE 8.1 mph - N/A   Partly Cloudy
6:50 AM 75.2 °F - 62.6 °F 65% 29.98 in 6.2 mi NE 6.9 mph - N/A   Partly Cloudy
7:20 AM 77.0 °F - 62.6 °F 61% 29.98 in - ENE 8.1 mph - N/A   Clear
7:50 AM 77.0 °F - 62.6 °F 61% 29.98 in - NE 11.5 mph - N/A   Clear
8:20 AM 78.8 °F - 60.8 °F 54% 29.98 in 6.2 mi NE 13.8 mph - N/A   Partly Cloudy
8:50 AM 80.6 °F 81.5 °F 60.8 °F 51% 29.98 in 6.2 mi Variable 12.7 mph - N/A   Partly Cloudy
9:00 AM 80 °F - 60 °F 41% 29.98 in 6 mi NE 12.7 mph - -   Scattered Clouds
9:20 AM 82.4 °F 82.5 °F 59.0 °F 45% 29.98 in 6.2 mi Variable 11.5 mph - N/A   Partly Cloudy
9:50 AM 82.4 °F 82.5 °F 59.0 °F 45% 29.98 in 6.2 mi NE 16.1 mph - N/A   Partly Cloudy
10:20 AM 82.4 °F 82.0 °F 57.2 °F 42% 29.98 in 6.2 mi ENE 16.1 mph - N/A   Partly Cloudy
10:50 AM 82.4 °F 81.7 °F 55.4 °F 39% 29.98 in 6.2 mi NE 16.1 mph - N/A   Partly Cloudy
11:20 AM 82.4 °F 82.5 °F 59.0 °F 45% 29.98 in 6.2 mi NNE 18.4 mph 31.1 mph N/A   Partly Cloudy
11:50 AM 84.2 °F 83.5 °F 57.2 °F 40% 29.98 in 6.2 mi NNE 17.3 mph - N/A   Scattered Clouds
12:20 PM 84.2 °F 83.5 °F 57.2 °F 40% 29.98 in 6.2 mi NNE 17.3 mph - N/A   Scattered Clouds
12:50 PM 84.2 °F 83.5 °F 57.2 °F 40% 29.98 in 6.2 mi NNE 17.3 mph - N/A   Scattered Clouds
1:20 PM 84.2 °F 83.5 °F 57.2 °F 40% 29.98 in 6.2 mi NE 17.3 mph - N/A   Scattered Clouds
1:50 PM 84.2 °F 83.0 °F 55.4 °F 37% 29.98 in 6.2 mi NE 18.4 mph - N/A   Scattered Clouds
2:20 PM 86.0 °F - 51.8 °F 31% 29.98 in 6.2 mi NNE 19.6 mph - N/A   Scattered Clouds
2:50 PM 86.0 °F - 48.2 °F 27% 29.98 in 6.2 mi NE 19.6 mph - N/A   Scattered Clouds
3:00 PM 85 °F - 46 °F 16% 29.97 in 6 mi NE 19.6 mph - -   Partly Cloudy
3:20 PM 84.2 °F - 51.8 °F 33% 29.95 in 6.2 mi NE 18.4 mph - N/A   Scattered Clouds
3:50 PM 84.2 °F 82.8 °F 53.6 °F 35% 29.95 in 6.2 mi NE 20.7 mph - N/A   Partly Cloudy
4:20 PM 84.2 °F - 51.8 °F 33% 29.95 in 6.2 mi NE 16.1 mph - N/A   Partly Cloudy
4:50 PM 84.2 °F 83.0 °F 55.4 °F 37% 29.95 in 6.2 mi NE 17.3 mph 28.8 mph N/A   Partly Cloudy
5:20 PM 84.2 °F 83.8 °F 59.0 °F 42% 29.95 in 6.2 mi NNE 17.3 mph - N/A   Partly Cloudy
5:50 PM 82.4 °F 82.0 °F 57.2 °F 42% 29.95 in 6.2 mi NNE 17.3 mph - N/A   Partly Cloudy
6:20 PM 82.4 °F 82.5 °F 59.0 °F 45% 29.95 in 6.2 mi NNE 17.3 mph - N/A   Partly Cloudy
6:50 PM 82.4 °F 82.9 °F 60.8 °F 48% 29.95 in - NNE 15.0 mph - N/A   Clear
7:20 PM 82.4 °F 82.9 °F 60.8 °F 48% 29.95 in - NNE 15.0 mph - N/A   Clear
7:50 PM 82.4 °F 82.9 °F 60.8 °F 48% 29.95 in - NNE 11.5 mph - N/A   Clear
8:20 PM 80.6 °F 81.5 °F 60.8 °F 51% 29.95 in - NE 10.4 mph - N/A   Clear
8:50 PM 78.8 °F - 62.6 °F 57% 29.95 in - NNE 10.4 mph - N/A   Clear
9:00 PM 79 °F - 62 °F 46% 29.96 in 6 mi NNE 10.4 mph - -  
9:20 PM 78.8 °F - 62.6 °F 57% 29.95 in - NNE 11.5 mph - N/A   Clear
9:50 PM 78.8 °F - 62.6 °F 57% 29.95 in - NE 9.2 mph - N/A   Clear
10:20 PM 77.0 °F - 64.4 °F 65% 29.95 in - NE 10.4 mph - N/A   Clear
10:50 PM 77.0 °F - 64.4 °F 65% 29.98 in - NE 9.2 mph - N/A   Clear
11:20 PM 77.0 °F - 64.4 °F 65% 29.95 in - NE 8.1 mph - N/A   Clear
11:50 PM 77.0 °F - 66.2 °F 69% 29.95 in - NE 6.9 mph - N/A   Clear